RH
74 73 71 67 64 61 60 58 57 56 56 55 53 53 52 56 63 69 73 71 66 64 66 75 85 93 97 97 95 92 89 87 83 79 75 72 68 65 62 61 62 63 65 69 74 81 90 97 100 100 100 100 100 100 100 100 100 99 99 100 100 100 100 99 98 96 95 94 91 89 87 85 84 83 83 83 84 86 91 95 97 97 98 98 99 99
71 68 65 62 60 58 58 58 57 57 57 56 55 54 53 55 60 64 68 66 64 61 60 65 74 84 93 96 96 95 93 90 88 85 81 77 72 68 65 64 63 63 64 66 70 76 85 94 98 100 100 100 100 100 100 100 100 99 99 99 100 100 100 100 99 99 98 97 94 91 90 89 89 88 89 89 90 91 93 96 97 98 99 99 99 99
70 66 63 61 60 60 60 59 59 58 58 57 56 55 54 55 58 62 66 66 66 65 62 61 66 75 86 93 96 96 95 93 91 89 86 82 77 72 69 68 67 66 65 66 68 73 80 90 97 100 100 100 100 100 100 100 100 99 99 99 100 100 100 100 100 100 100 99 97 95 94 95 94 94 95 95 96 96 97 97 98 99 99 99 99 99
77 73 71 70 69 67 66 64 63 61 60 59 57 56 55 56 59 64 68 72 74 73 68 62 63 70 82 92 96 97 97 96 93 91 89 86 82 77 74 72 71 70 68 67 68 72 78 87 95 100 100 100 100 100 100 100 100 100 99 100 100 100 100 100 100 100 100 100 99 99 98 99 98 98 98 98 99 99 99 99 99 100 99 99 99 100
87 84 82 82 80 78 75 73 71 68 66 64 61 59 57 59 62 68 75 81 83 81 73 65 63 67 79 91 97 99 98 97 95 93 90 88 85 81 78 77 76 75 72 70 69 71 77 85 93 98 100 100 100 100 100 100 100 100 100 100 100 100 100 100 100 100 100 100 100 100 100 100 100 100 100 100 100 100 100 100 100 100 100 99 99 100
89 88 88 89 88 87 85 83 81 79 76 73 69 66 63 64 67 73 82 88 89 85 77 68 64 66 75 88 95 99 99 98 96 93 90 89 86 84 81 80 79 79 77 74 71 72 75 83 91 97 100 100 100 100 100 100 100 100 100 100 100 100 100 100 100 100 100 100 100 100 100 100 100 100 100 100 100 100 100 100 100 100 100 99 99 99
89 88 87 87 87 86 86 85 85 85 84 81 78 74 71 71 73 78 84 91 91 87 79 71 65 65 73 84 92 97 99 98 96 93 89 88 87 85 83 82 82 82 81 78 75 73 74 81 89 96 99 100 100 100 100 100 100 100 100 100 100 100 100 100 100 100 100 100 100 100 100 100 100 100 100 100 100 100 100 100 100 100 100 99 99 99
89 87 84 81 79 79 79 80 82 83 85 84 83 81 80 80 81 83 87 92 92 88 82 75 70 68 73 84 92 96 98 96 94 90 88 87 87 86 85 84 85 86 86 84 80 77 75 79 86 93 98 99 100 100 100 100 100 100 100 100 100 100 100 100 100 100 100 100 100 100 100 100 100 100 100 100 100 100 100 100 100 100 100 99 99 99
92 89 86 82 79 77 76 77 79 80 82 82 83 85 87 89 89 89 91 93 93 89 85 80 75 73 77 89 95 98 97 93 89 86 83 85 86 88 88 88 89 89 90 89 86 82 78 80 84 89 95 98 99 99 99 99 100 100 100 100 100 100 100 100 100 100 100 100 100 100 100 100 100 100 100 100 100 100 100 100 100 100 100 100 99 99
97 96 93 90 86 83 80 80 81 81 80 80 81 83 88 93 95 95 96 94 91 88 86 80 78 78 84 94 98 99 97 92 87 82 80 81 84 87 89 91 92 93 94 93 91 88 84 83 85 88 93 96 97 98 98 98 99 100 100 100 100 100 100 100 100 100 100 100 100 100 100 100 100 100 100 100 100 100 100 100 100 100 100 100 99 99
98 99 98 97 95 92 89 88 87 86 84 83 82 84 87 94 98 99 98 94 90 86 85 81 79 81 89 96 99 100 99 95 91 87 85 85 86 88 92 94 96 96 96 96 95 93 90 88 89 90 92 93 95 96 97 98 99 100 100 100 100 100 100 100 100 100 100 100 100 100 100 100 100 100 100 100 100 100 100 99 99 99 99 99 99 99
98 98 97 97 98 98 97 94 91 88 86 85 85 84 84 89 93 96 98 95 90 86 85 81 79 82 90 97 100 100 100 99 98 97 95 94 94 95 97 98 98 98 98 98 98 97 95 95 94 94 94 94 94 94 95 97 98 99 100 100 100 100 100 100 100 100 100 100 100 100 100 100 100 100 100 100 100 100 99 99 99 99 99 99 99 98
96 96 96 96 96 97 99 98 96 95 92 92 91 90 85 86 89 93 95 96 92 88 84 81 80 82 89 97 99 100 100 100 100 100 99 99 99 99 100 100 100 100 100 100 99 99 99 99 98 98 97 96 95 95 96 96 97 98 100 100 100 100 100 100 100 100 100 100 100 100 100 100 99 99 100 100 100 99 99 99 99 99 98 98 98 97
92 92 92 93 93 95 98 98 97 97 97 97 97 97 96 96 97 97 98 98 95 91 85 81 81 84 89 96 99 100 100 100 100 100 100 100 100 100 100 100 100 100 100 100 100 100 100 100 100 100 99 99 98 98 98 98 98 99 100 100 100 100 100 100 100 100 100 100 100 100 100 100 99 99 99 99 99 99 99 98 98 98 98 97 96 94
89 89 89 89 90 92 96 97 97 97 98 99 99 99 99 98 98 99 99 98 97 94 89 84 84 87 90 96 99 100 100 100 100 100 100 100 100 100 100 100 100 100 100 100 100 100 100 100 100 100 100 100 100 100 100 99 99 100 100 100 100 100 100 100 100 100 100 100 100 100 100 100 99 99 99 99 99 99 98 98 98 97 96 95 93 91
87 87 87 87 88 90 93 96 97 98 98 99 99 99 99 99 99 99 99 98 97 95 91 91 92 93 93 96 98 100 100 100 100 100 100 100 100 100 100 100 100 100 100 100 100 100 100 100 100 100 100 100 100 100 100 100 100 100 100 100 100 100 100 100 100 100 100 100 100 99 100 99 99 99 99 99 99 99 98 97 97 96 95 94 92 90
87 87 87 87 87 89 92 94 96 97 97 98 99 99 99 99 99 99 99 99 98 96 92 92 95 97 96 97 98 99 100 100 100 100 100 100 100 100 100 100 100 100 100 100 100 100 100 100 100 100 100 100 100 100 100 100 100 100 100 100 100 100 100 100 100 100 99 99 99 99 100 100 99 99 99 99 99 99 98 97 97 96 95 94 92 89
88 89 89 89 89 90 92 94 95 97 97 98 98 99 99 99 99 99 99 99 98 96 95 92 94 97 98 98 98 99 99 99 100 100 100 100 100 100 100 100 100 100 100 100 100 100 100 100 100 100 100 100 100 100 100 100 100 100 99 100 100 99 99 99 99 100 99 99 99 100 100 100 99 99 99 99 99 98 98 97 96 95 94 92 90 87
89 90 91 92 93 93 93 94 95 97 97 97 98 98 98 99 99 99 99 99 99 98 97 94 92 92 97 97 98 99 99 99 99 99 99 100 100 100 100 100 100 100 100 100 100 100 100 100 100 100 100 100 100 100 100 100 100 100 100 100 100 99 99 99 99 100 100 100 99 99 100 99 99 99 99 98 98 97 97 95 94 92 90 88 85 82
90 91 94 96 96 95 94 95 96 97 97 97 97 98 98 99 99 99 99 99 99 99 98 95 92 91 93 96 97 97 99 99 98 98 99 100 100 100 100 100 100 100 100 100 100 100 100 100 100 100 100 100 100 100 100 100 100 100 100 100 99 99 99 99 99 99 99 100 99 99 99 99 99 99 98 97 97 95 94 92 90 88 86 82 79 75
92 93 95 96 96 96 95 96 96 97 97 97 97 97 97 98 99 99 99 99 99 99 99 97 93 89 87 92 95 97 99 99 98 97 97 99 100 100 100 100 100 100 100 100 100 100 100 100 100 100 100 100 99 99 99 99 99 99 100 100 100 99 99 99 99 99 99 99 99 99 99 99 99 99 98 97 96 94 93 91 89 87 85 82 78 72
94 94 95 96 96 96 96 96 97 97 97 97 97 97 97 98 98 99 99 99 99 99 99 98 95 90 84 87 92 97 100 99 98 97 97 98 99 100 100 100 100 100 100 100 100 100 100 100 100 100 100 100 100 99 99 99 99 99 100 100 99 99 99 99 99 99 99 99 99 99 99 99 98 98 97 96 95 94 92 91 89 87 85 81 77 72
94 94 94 95 95 95 96 96 97 97 97 97 97 97 97 97 98 98 99 99 99 99 99 98 98 95 88 85 89 95 100 99 98 96 94 96 98 100 100 100 100 100 100 100 100 100 100 100 100 100 99 100 100 99 99 99 99 99 99 99 99 99 99 99 99 99 99 99 99 98 98 97 96 96 95 93 92 90 88 85 83 80 76 72 68 63
94 94 95 95 94 95 95 96 96 97 97 97 97 97 96 97 97 98 98 98 98 97 96 96 97 98 96 89 90 95 100 99 98 96 93 96 98 100 100 100 100 100 100 100 100 100 100 100 99 99 99 99 99 99 99 99 98 98 99 99 99 99 99 99 99 99 98 98 98 97 96 94 93 91 89 87 83 80 76 72 68 64 60 56 52 50
94 94 95 94 95 95 95 95 96 96 97 97 97 96 96 97 98 99 99 99 98 98 98 99 99 99 100 97 96 97 99 99 98 97 94 96 98 100 100 99 99 100 100 100 100 100 100 100 99 99 99 99 99 99 99 99 99 99 98 99 99 99 99 98 98 98 97 96 94 93 91 89 86 83 80 76 73 69 65 62 59 57 55 54 53 53
94 94 93 94 94 94 94 94 95 96 97 97 96 96 96 97 98 99 99 99 100 100 100 99 99 99 100 99 98 98 98 99 98 96 93 93 96 99 99 99 99 100 100 100 100 100 100 100 100 99 99 98 98 98 98 98 98 98 98 98 97 97 97 97 96 95 94 92 90 88 86 83 80 78 75 72 70 68 66 66 66 66 67 68 68 69
93 93 93 93 94 94 94 94 94 95 96 97 96 96 96 97 97 98 98 98 99 99 99 98 98 99 99 98 97 96 97 98 98 96 91 91 94 97 99 99 100 100 100 100 100 100 100 100 100 100 100 99 98 96 96 96 96 96 96 95 94 93 93 92 91 91 90 88 87 85 83 82 80 79 78 77 77 77 77 77 77 78 79 80 81 81
91 92 92 93 93 93 94 94 94 95 95 95 96 96 95 95 96 96 96 96 97 98 99 98 97 97 97 97 96 96 96 98 99 97 92 89 92 96 99 100 100 100 100 100 100 100 100 100 100 100 100 99 99 97 96 95 94 93 93 92 91 90 90 89 89 88 88 87 86 85 85 84 83 83 83 83 83 83 83 82 82 82 82 83 84 84
87 88 90 91 92 92 93 93 93 94 94 94 95 95 95 95 95 95 95 95 96 97 99 98 97 95 94 96 97 96 96 98 99 98 95 91 92 95 99 99 98 98 98 98 99 99 100 100 100 100 100 99 99 99 98 98 97 95 94 93 92 91 91 90 89 89 88 88 87 86 86 85 85 84 83 83 83 82 82 81 81 81 81 81 81 80
84 85 86 88 90 90 91 92 93 93 93 94 94 94 94 94 94 94 94 95 96 97 98 99 98 95 92 95 96 96 96 97 99 99 98 94 93 94 97 97 96 94 92 92 94 97 99 100 100 100 100 100 100 100 99 99 99 99 98 97 96 95 94 93 91 91 90 89 88 87 86 85 84 83 82 82 81 81 80 80 80 80 80 80 78 75
84 85 86 87 88 89 90 92 92 93 93 93 93 94 94 94 94 94 94 95 95 96 97 98 98 96 90 90 93 96 95 96 98 99 99 95 93 92 95 94 93 92 87 84 87 92 97 99 100 100 100 100 100 100 100 100 100 100 100 99 99 99 98 97 96 94 93 92 90 89 87 86 84 83 82 81 81 80 80 79 80 80 81 81 79 77
84 86 86 87 88 89 90 91 92 92 92 92 92 93 94 94 94 94 94 94 95 95 96 97 99 98 94 91 92 95 96 96 97 99 99 96 93 91 91 91 91 89 85 81 81 85 93 97 100 100 100 100 100 100 100 100 100 100 100 100 100 100 100 99 99 98 97 97 95 94 91 89 87 85 84 83 83 82 82 81 81 82 82 82 81 80
82 84 85 86 87 88 89 91 91 92 92 92 92 93 93 94 94 94 94 94 95 95 95 96 97 98 98 96 96 95 96 94 96 98 100 97 94 91 89 89 89 87 84 82 81 84 89 95 98 100 100 100 100 100 100 100 100 100 100 100 100 100 100 99 99 99 99 99 98 98 97 95 93 91 89 88 87 86 85 84 83 82 81 81 80 77
80 83 84 86 87 88 89 90 91 91 92 92 93 93 93 93 94 94 94 94 94 95 95 95 96 97 98 98 98 97 95 94 95 98 100 98 95 91 89 88 87 86 85 85 87 88 90 94 96 98 100 100 100 100 100 100 100 100 100 100 100 99 99 98 98 97 97 96 96 95 95 94 93 92 91 89 86 83 80 78 76 75 75 73 70 64
78 80 83 85 86 87 88 89 90 91 92 92 93 93 93 93 93 94 94 94 94 94 95 95 96 96 97 98 98 98 97 95 96 97 99 99 95 91 88 87 86 85 86 88 89 90 92 94 94 95 97 99 100 100 100 100 100 100 100 100 99 99 98 96 95 93 92 90 88 86 84 82 80 78 76 72 68 64 59 57 56 55 55 55 53 49
75 78 81 84 86 87 88 89 91 91 92 92 92 93 92 93 93 93 94 94 94 94 95 95 96 96 97 97 97 98 99 97 97 97 99 99 96 92 89 88 87 86 87 88 88 89 92 94 95 95 95 97 99 100 100 100 100 100 100 99 99 98 96 94 91 89 87 85 83 81 77 73 69 65 62 55 49 45 42 40 40 40 41 41 42 42
74 76 79 83 85 87 89 90 91 91 92 92 92 92 93 93 93 93 94 94 94 94 95 95 96 96 97 97 98 98 99 98 98 98 99 99 98 95 92 91 89 88 88 89 89 90 92 94 95 95 94 95 97 99 99 100 100 100 99 99 99 98 96 93 90 88 85 83 82 81 78 75 73 71 67 59 52 47 44 42 42 42 43 45 47 48
73 74 77 81 84 87 89 90 91 91 91 91 92 92 92 92 92 93 93 94 94 94 95 95 96 97 97 97 98 98 99 99 99 99 100 99 97 95 93 93 91 90 90 90 91 91 91 92 92 92 91 94 97 99 99 100 99 99 99 99 97 96 95 93 90 88 86 85 84 83 81 79 77 75 72 64 58 54 53 52 52 52 52 54 54 54
73 74 76 80 83 86 89 90 91 91 91 91 91 92 92 93 93 93 93 93 94 94 95 95 96 97 97 98 98 98 99 99 100 100 100 98 96 94 93 93 93 93 93 93 92 90 89 88 88 88 89 93 96 99 99 99 99 99 99 97 95 92 90 89 88 86 85 84 84 82 81 77 73 69 66 60 55 53 54 56 56 56 56 57 58 58
75 74 75 78 81 85 88 89 90 91 91 91 91 92 92 93 92 92 91 92 93 94 94 95 96 96 97 97 98 98 99 100 100 100 100 98 97 95 94 94 95 95 94 93 92 90 88 87 87 87 89 91 94 97 98 99 99 99 98 97 96 94 89 86 84 83 82 80 79 77 76 72 68 64 61 57 53 51 52 55 56 57 56 57 59 61
76 75 75 77 79 83 87 89 90 91 91 91 91 91 92 92 92 92 90 91 92 94 94 95 95 96 96 97 97 97 97 99 100 100 100 99 98 97 96 97 96 96 95 94 93 92 90 90 91 91 92 94 95 96 97 98 98 98 96 96 96 95 89 84 81 78 76 74 72 71 70 68 66 64 62 59 57 56 55 56 58 60 59 60 60 61
77 76 76 76 78 81 84 86 88 89 90 91 91 91 92 92 92 92 92 92 92 93 94 94 94 95 95 96 96 97 97 97 98 99 100 100 99 98 98 98 97 97 96 96 96 95 94 94 94 94 94 95 95 95 97 98 98 97 95 96 95 94 89 85 80 75 72 70 67 64 62 61 60 60 59 59 58 58 57 57 59 60 60 61 61 60
77 77 76 76 77 79 82 83 86 88 89 90 91 91 91 91 91 92 92 92 92 92 92 93 93 93 94 95 96 96 96 96 97 98 100 100 100 100 99 99 98 96 95 96 98 98 98 97 97 97 96 96 95 95 96 98 98 97 96 94 92 90 91 90 85 80 75 71 67 64 60 59 57 56 55 55 54 54 55 54 53 53 52 51 51 50
78 77 77 75 75 77 80 82 84 86 88 89 90 91 91 91 91 91 91 91 92 92 92 92 91 90 91 93 94 95 95 95 96 97 98 99 100 100 100 99 98 97 94 95 97 99 99 98 98 98 97 96 96 95 95 97 97 96 94 90 88 87 90 90 88 83 80 77 74 71 68 65 62 60 57 55 54 53 52 51 50 49 47 46 45 44
78 78 78 76 76 77 79 81 83 84 86 88 90 90 91 91 91 91 91 91 91 91 92 91 90 88 88 90 92 94 95 95 96 97 97 97 98 99 100 100 99 97 96 96 96 96 97 98 98 98 97 96 95 95 95 96 96 96 94 92 91 90 91 89 86 83 83 82 80 78 76 73 69 64 59 55 50 47 45 44 44 44 43 40 39 39
79 79 79 77 76 77 78 80 81 83 84 87 89 90 91 91 91 91 91 91 91 91 91 91 89 88 88 89 90 92 93 94 95 96 96 96 97 98 99 99 99 99 98 98 98 97 97 97 98 98 97 96 96 96 95 95 96 96 96 95 95 93 91 89 87 85 85 84 82 81 80 77 73 68 61 57 54 50 47 46 44 42 42 39 37 35
79 80 80 78 77 77 78 79 80 82 83 86 88 89 90 91 91 91 91 91 91 90 90 89 89 89 89 90 91 91 92 93 94 95 95 94 95 95 97 97 97 98 98 98 98 98 98 98 97 97 95 95 95 96 97 96 96 96 96 96 96 95 94 93 91 89 86 84 82 81 80 78 75 72 68 65 62 59 55 53 50 47 44 40 38 35
80 80 81 79 78 78 79 79 80 81 82 84 86 88 89 90 91 91 91 90 90 89 89 89 89 89 89 90 91 92 92 93 94 95 95 94 94 94 95 95 96 97 97 97 97 97 97 97 97 96 94 93 94 95 96 96 96 96 96 96 96 96 95 95 94 92 89 86 84 83 82 81 79 77 75 72 70 67 63 59 55 50 45 41 37 35
79 80 81 80 78 78 80 79 80 82 82 84 85 86 87 88 89 90 90 90 90 89 89 89 89 89 89 90 90 91 92 93 93 94 94 94 94 94 94 95 95 96 96 96 97 97 96 96 96 96 96 95 94 95 95 95 95 95 95 95 95 95 95 95 95 93 91 89 88 87 86 85 84 82 80 77 74 71 68 63 58 53 48 43 38 35
77 78 80 80 79 78 79 80 81 82 82 83 85 86 86 86 87 88 89 89 89 89 89 89 89 89 89 90 90 91 92 92 92 93 93 94 94 95 95 95 96 96 96 95 95 95 94 94 95 95 95 95 95 95 95 95 95 95 95 95 95 95 95 95 94 93 91 90 90 89 89 88 87 85 81 77 74 71 68 64 60 56 51 46 42 38
75 76 78 79 79 78 78 79 80 81 82 83 84 85 85 85 86 86 87 88 88 88 89 89 89 89 89 90 90 91 91 91 91 92 92 93 94 95 95 96 95 94 93 92 91 90 90 90 92 93 95 95 94 94 94 94 95 94 94 94 94 95 94 94 93 91 90 90 89 88 87 86 84 81 77 72 70 68 65 62 60 57 54 50 46 42
Wind_Speed
24 24 23 22 20 19 19 19 18 19 20 21 21 20 19 19 18 18 18 19 20 21 21 21 20 20 20 21 22 23 24 25 26 27 28 28 27 27 25 24 23 23 23 24 26 29 31 32 31 30 29 30 31 32 33 35 36 37 37 36 35 36 39 40 41 41 41 41 40 39 37 36 35 35 35 35 35 36 35 33 33 33 33 34 34 34
22 21 21 19 18 17 17 18 18 18 19 20 20 20 20 20 20 20 20 21 21 22 22 22 22 21 22 22 23 24 25 26 27 28 29 29 29 28 27 26 24 24 24 24 26 28 30 32 32 31 30 31 32 32 33 35 36 37 37 37 36 35 36 39 41 41 41 41 40 39 37 36 35 35 35 35 36 36 36 35 35 35 35 36 36 35
17 17 16 16 16 16 17 18 19 19 19 20 20 20 20 20 20 20 21 21 22 22 22 22 22 22 22 23 24 25 27 28 29 29 30 30 31 30 29 28 26 25 24 25 26 27 29 31 32 32 31 31 32 33 34 36 37 38 38 38 37 36 34 36 38 40 41 41 40 39 37 36 36 36 36 36 36 37 37 37 36 36 37 38 37 36
13 13 14 13 14 15 16 18 18 19 19 19 20 20 20 20 20 20 21 21 21 21 22 22 22 22 22 23 24 25 27 29 30 31 31 32 32 32 31 30 28 27 26 26 26 27 29 31 32 33 32 32 32 34 35 37 38 39 40 39 38 36 33 33 34 37 39 41 41 39 38 37 37 37 37 37 36 37 37 36 36 37 38 39 38 37
10 11 12 12 12 13 15 15 16 17 18 19 20 20 20 21 21 21 21 21 21 20 20 21 22 22 22 22 23 25 27 29 30 31 32 32 33 33 32 31 29 28 27 27 27 27 29 30 32 32 32 32 32 33 35 37 38 38 39 39 38 36 34 32 32 33 35 38 39 38 37 37 37 37 36 35 34 33 33 34 35 38 40 40 39 38
11 11 11 11 12 13 14 15 16 17 18 19 20 21 21 21 20 21 21 20 20 19 19 20 21 21 21 22 23 25 27 29 30 30 30 31 32 33 32 31 30 29 28 28 28 28 29 30 32 33 33 32 32 33 34 35 36 37 38 38 37 36 35 33 32 31 32 34 35 35 34 34 34 35 34 32 30 28 28 31 36 40 42 42 40 39
12 12 12 13 13 14 15 16 17 17 18 19 19 20 20 20 20 20 20 20 19 18 18 19 20 21 21 21 23 24 27 28 29 29 29 30 31 31 31 31 30 30 29 29 29 29 29 30 32 33 34 33 33 33 33 33 34 34 36 36 36 36 35 34 33 32 32 32 32 33 33 32 32 32 32 31 28 25 26 30 37 42 44 44 42 41
13 14 14 14 14 15 16 17 17 16 16 17 18 18 18 18 18 19 19 18 17 17 17 17 19 20 20 20 22 24 26 28 28 28 28 29 30 30 31 30 30 30 30 30 30 30 30 31 32 33 34 35 34 34 34 33 32 32 33 34 35 36 36 36 35 34 33 32 33 33 33 33 33 32 31 30 28 26 27 32 38 42 44 45 44 43
13 13 14 14 14 14 15 16 16 16 16 16 17 17 17 16 17 18 18 17 15 15 14 15 17 18 18 18 19 22 26 27 28 28 29 29 30 30 30 30 30 30 30 30 30 30 30 31 31 33 34 35 35 34 33 33 32 31 31 32 34 35 36 36 35 34 33 33 34 35 33 32 33 34 31 28 27 28 31 36 40 41 42 44 44 44
11 11 12 13 14 14 14 14 15 16 16 17 17 18 17 17 16 16 16 15 14 13 13 14 15 16 16 15 16 20 24 26 28 28 28 29 29 30 30 30 30 30 30 30 30 30 31 31 31 32 33 34 34 33 32 32 32 32 31 31 32 33 34 33 33 32 32 32 33 34 32 31 32 33 31 28 29 33 38 41 42 42 42 43 43 44
10 11 11 12 12 12 12 12 13 14 14 15 17 18 17 16 14 13 13 13 13 13 12 13 13 14 14 13 12 16 22 25 26 27 27 28 28 28 28 28 28 28 28 29 29 29 30 30 31 31 32 33 33 32 31 30 31 32 32 32 32 31 31 30 29 29 29 29 30 31 31 30 32 33 31 31 34 39 43 44 44 44 43 43 43 42
9 9 10 11 11 11 10 10 10 10 11 12 13 14 14 14 13 13 12 13 13 13 12 12 13 14 14 13 10 12 20 22 23 24 25 26 26 27 27 27 27 27 27 27 27 27 28 29 29 30 30 30 30 30 29 29 29 30 31 33 32 31 30 28 27 26 25 25 26 28 30 30 32 33 32 36 40 43 46 46 44 43 44 44 43 41
9 9 9 10 11 12 13 14 13 12 11 10 9 9 11 12 13 13 13 13 13 12 11 11 12 14 16 15 10 10 17 20 20 20 21 22 24 25 26 27 27 27 26 26 25 26 26 26 27 28 28 28 27 27 27 27 27 27 29 32 33 33 31 29 27 25 25 25 25 27 29 31 33 35 36 40 44 45 46 44 43 42 43 43 41 40
10 10 10 9 10 12 13 14 14 13 13 13 13 14 15 16 14 12 12 13 12 11 10 10 11 14 17 16 12 10 15 19 19 18 17 18 20 22 25 26 26 26 25 24 24 25 25 25 26 26 26 26 26 26 27 27 27 28 28 30 32 33 32 30 28 26 24 24 25 27 30 33 36 39 42 44 45 46 45 43 42 43 42 41 40 39
11 11 10 9 9 11 12 12 12 12 12 14 16 18 19 18 17 14 12 11 11 10 9 9 11 14 18 18 13 10 15 20 20 19 18 17 18 20 23 25 25 24 23 23 23 24 25 25 26 26 27 27 28 28 28 29 29 29 30 31 31 32 31 30 28 26 25 25 28 31 35 38 41 44 46 46 46 45 44 44 44 43 42 41 40 39
12 11 9 9 9 10 11 12 12 12 14 16 17 17 16 16 16 15 13 11 10 9 8 6 7 10 15 17 13 10 15 20 21 21 20 18 17 19 22 25 25 23 22 22 22 23 24 26 26 27 28 28 29 30 30 31 31 31 32 32 31 31 30 30 29 29 30 32 34 37 40 44 47 48 48 47 46 46 45 45 44 43 42 41 40 40
12 11 10 10 10 11 12 13 13 14 15 16 17 17 15 15 15 15 15 13 10 9 8 6 3 3 6 10 11 10 14 18 21 23 22 19 18 19 22 26 26 25 23 22 22 23 24 25 26 26 27 28 29 30 30 31 31 31 32 32 31 31 31 32 33 35 37 38 40 43 47 49 50 49 48 47 46 46 45 45 44 43 42 41 41 41
11 11 11 10 10 11 12 13 14 15 16 16 17 18 17 17 16 16 15 15 11 8 8 8 5 2 1 4 8 9 13 18 21 23 22 20 18 19 22 26 26 25 24 22 22 22 23 24 25 26 27 28 28 29 29 30 30 31 31 32 33 33 34 36 40 44 45 46 47 49 50 50 49 48 47 47 47 46 46 45 44 43 42 42 41 40
12 12 12 11 11 12 12 13 14 15 16 17 17 18 17 17 16 15 14 14 12 8 8 9 8 7 5 5 7 9 12 18 22 23 21 19 18 19 23 26 28 28 25 23 23 24 25 25 26 28 30 30 30 30 30 31 32 33 34 36 37 39 40 44 48 51 52 53 52 51 51 50 49 49 48 48 48 47 47 46 45 44 42 41 40 39
12 13 14 14 13 13 12 13 14 16 17 18 18 17 16 15 15 14 13 13 13 10 7 9 11 10 9 8 10 10 11 17 21 22 21 19 18 19 23 27 28 28 26 26 26 28 29 31 32 34 35 34 33 33 34 36 38 40 42 43 45 47 49 52 54 55 55 55 53 52 51 50 49 49 48 48 48 48 47 46 44 42 40 38 36 35
12 13 15 17 15 13 13 14 17 18 18 19 18 16 14 13 13 12 13 13 14 12 7 7 11 13 14 12 13 13 12 14 17 18 18 17 17 18 22 26 30 31 30 29 30 31 33 35 36 38 40 41 40 40 40 43 45 47 50 52 53 55 56 56 56 56 55 54 53 52 51 50 49 48 48 47 47 46 45 44 42 39 37 35 34 32
13 14 17 18 17 15 15 17 19 20 20 19 16 14 12 12 12 12 13 13 13 12 11 7 8 13 17 16 16 15 13 13 15 16 16 13 13 16 22 28 32 33 31 31 31 32 34 36 37 39 42 44 46 48 49 50 52 54 55 56 57 58 58 57 57 56 55 55 54 53 52 50 49 48 47 47 46 45 44 43 41 39 37 35 34 33
16 17 18 19 19 18 17 19 20 21 21 19 16 14 14 13 13 14 15 15 14 14 14 14 11 12 17 17 17 16 15 14 15 18 17 10 9 14 21 27 30 30 30 30 31 34 36 37 37 38 40 43 47 50 53 55 55 56 56 57 58 58 58 57 57 56 55 55 54 53 52 51 50 49 48 47 46 45 44 43 41 40 38 36 35 33
18 18 19 20 20 19 19 19 21 22 23 21 19 17 15 13 13 14 16 17 18 18 18 19 15 11 16 18 18 17 17 15 15 17 16 11 11 15 21 26 28 28 28 29 31 33 34 35 35 36 37 40 42 46 50 54 56 57 57 57 57 58 58 57 57 56 55 55 54 53 52 51 50 49 47 46 45 43 42 41 39 38 36 34 32 30
19 19 19 20 19 18 18 19 20 21 23 23 22 20 16 11 8 9 11 13 16 17 18 17 14 11 13 16 16 17 17 15 15 16 16 14 14 17 21 25 27 27 27 30 33 34 33 32 32 32 34 36 38 42 45 49 52 55 56 56 57 57 57 57 56 55 54 53 52 51 50 49 47 46 45 43 42 40 39 37 36 34 32 30 28 26
19 19 19 19 19 18 17 18 19 21 22 23 23 22 17 11 5 3 5 8 10 12 13 12 10 9 11 14 14 14 16 14 15 17 20 20 18 17 19 23 26 28 29 30 32 33 32 31 31 30 30 30 32 35 39 43 46 49 51 52 53 53 53 53 52 52 51 50 49 48 46 45 43 42 41 40 39 38 37 35 34 32 31 29 28 26
19 19 19 20 20 19 19 19 20 22 23 23 23 22 19 14 8 4 4 6 6 8 9 8 6 5 8 11 13 14 14 12 13 18 24 25 21 16 17 22 27 30 30 30 30 31 30 30 30 31 31 30 28 29 30 33 36 39 41 43 44 45 45 45 45 45 44 44 43 42 41 40 39 38 37 37 36 35 35 34 33 32 31 30 28 26
21 21 21 21 21 21 21 21 22 23 24 24 24 23 22 20 16 12 11 13 11 8 8 7 5 4 5 8 12 14 14 11 11 17 24 26 22 17 19 23 28 31 31 29 29 30 29 29 29 30 32 32 32 30 29 29 29 30 32 33 34 35 36 37 37 37 37 37 37 37 36 36 35 35 34 34 33 33 33 32 32 31 30 30 28 26
23 23 23 23 23 23 23 23 23 23 24 24 25 25 25 24 20 16 15 16 13 10 9 10 9 8 7 10 13 15 14 10 11 16 22 23 21 20 23 25 28 31 30 28 27 27 26 27 27 28 31 33 34 33 32 31 31 30 30 30 31 31 32 33 33 33 33 33 33 33 33 33 33 32 32 32 32 32 32 32 32 31 31 31 29 27
25 25 26 25 25 25 25 25 24 24 25 25 25 26 26 25 23 20 19 18 15 11 9 10 10 12 13 13 11 9 9 10 10 12 18 20 21 24 27 27 27 29 30 26 18 13 17 22 27 29 30 32 32 33 33 33 33 33 33 32 32 32 32 33 33 33 33 32 32 32 32 32 32 32 32 32 31 31 32 32 32 32 32 31 29 28
24 25 26 26 25 26 26 26 25 25 26 26 26 26 26 26 25 24 23 21 18 14 10 10 6 8 15 11 6 4 4 10 11 9 13 19 24 28 29 27 26 28 30 27 13 3 7 12 21 28 30 31 31 31 31 32 32 33 33 32 32 31 32 33 33 33 33 32 32 32 31 31 31 31 31 31 31 31 31 32 32 32 32 31 29 28
22 23 24 24 25 25 26 26 26 26 27 28 29 28 28 27 26 26 25 23 21 18 14 12 9 3 8 8 6 5 5 10 11 9 9 17 26 32 32 30 27 26 27 29 24 14 7 6 14 25 30 31 30 30 30 31 31 31 32 32 32 32 32 33 34 34 33 32 32 31 31 31 31 31 31 30 30 30 30 31 31 31 31 31 30 28
21 22 23 24 25 25 25 26 26 27 28 29 30 29 29 28 27 26 26 25 23 21 18 15 12 10 6 8 8 9 11 14 14 11 8 14 23 30 33 31 28 26 25 26 28 26 19 16 18 24 28 29 29 29 30 31 31 31 32 33 34 34 35 36 36 35 34 33 33 32 31 31 31 31 31 30 30 30 30 30 30 30 30 30 30 29
21 22 23 25 25 25 25 26 27 27 28 29 29 29 29 28 27 26 26 25 24 22 20 17 15 12 10 8 9 10 13 18 17 12 8 11 20 28 32 31 29 28 26 24 24 26 27 28 27 26 25 27 29 30 31 31 31 32 34 34 34 34 35 36 36 36 36 35 34 33 32 31 31 31 31 31 31 30 30 30 30 29 29 30 30 30
21 22 23 24 25 25 26 26 27 28 28 29 29 29 29 28 27 27 26 25 24 23 21 20 18 15 13 10 9 7 8 16 18 13 9 11 19 28 31 31 30 30 28 26 25 25 24 28 30 29 26 25 26 29 30 31 32 33 34 35 35 35 36 37 37 37 37 36 34 33 32 31 31 31 31 31 31 31 31 30 30 30 29 29 29 29
21 22 23 24 24 24 25 26 27 28 28 29 29 29 29 28 27 26 26 25 24 23 21 21 20 19 16 14 11 9 5 12 16 14 10 12 19 26 28 29 31 32 31 30 29 28 25 25 28 30 29 24 21 22 27 31 34 35 35 36 36 37 38 38 39 38 38 36 35 34 33 32 31 31 30 31 31 31 31 30 30 29 28 27 26 26
21 21 22 23 24 24 24 25 26 27 28 28 28 29 28 27 27 26 25 25 24 23 22 22 22 21 19 17 15 11 8 9 13 13 11 13 19 25 26 27 31 34 33 31 31 30 27 24 24 25 25 22 19 18 22 29 33 35 34 35 36 37 37 38 39 39 38 37 36 35 34 33 32 31 30 30 30 30 30 29 28 26 25 24 22 21
21 22 23 23 23 24 24 24 25 26 27 27 27 27 27 26 26 25 25 24 24 23 23 23 24 24 22 20 18 15 12 9 10 11 12 16 23 29 30 29 31 33 33 33 33 32 30 25 20 17 18 20 20 22 24 28 31 31 32 34 35 35 35 36 37 38 38 37 37 36 35 34 34 33 32 31 31 30 29 27 26 24 23 22 20 18
21 21 22 22 23 23 23 24 24 25 26 25 25 24 25 24 25 25 25 24 23 23 23 24 25 26 25 23 21 19 17 15 15 16 19 23 29 34 36 35 32 31 31 32 33 34 33 29 25 22 20 20 21 22 25 28 29 30 31 32 32 32 32 33 34 36 36 37 36 36 35 34 34 33 32 30 30 29 28 26 25 23 23 22 20 19
20 20 21 21 22 22 22 23 24 24 25 24 24 24 25 25 25 25 26 25 24 23 23 24 26 27 28 27 25 24 22 21 22 23 26 29 32 35 38 37 35 33 31 30 29 29 29 28 28 29 29 26 24 23 23 25 28 30 31 28 25 24 28 31 32 33 34 35 35 35 34 33 32 31 30 29 28 27 26 25 24 22 21 21 21 21
19 20 20 21 21 22 22 22 23 23 24 24 25 25 26 26 26 26 27 27 26 25 24 24 26 28 29 29 28 28 26 26 26 27 29 31 33 35 37 37 36 35 33 30 28 27 27 26 27 27 28 28 27 26 25 25 26 28 28 25 23 23 27 29 30 31 32 33 33 33 33 32 31 29 28 27 26 25 24 24 23 21 19 18 18 19
18 19 20 20 21 22 22 22 23 23 24 24 26 27 27 27 25 24 25 26 26 26 25 24 24 26 28 29 30 30 29 29 28 29 30 32 33 34 35 35 35 35 34 32 30 29 28 28 27 27 27 27 27 26 24 23 24 25 26 26 26 25 25 25 27 29 30 30 30 31 31 30 30 29 28 27 26 24 23 22 21 20 19 17 16 15
18 18 19 20 20 21 22 23 23 24 24 25 26 26 27 26 25 24 23 24 25 25 24 23 22 23 24 26 28 29 30 30 30 30 30 31 32 33 33 34 34 34 35 34 32 30 29 29 28 27 27 28 28 27 24 23 23 24 25 28 28 25 19 19 23 26 27 28 28 29 29 29 29 28 27 26 25 24 23 22 20 19 18 17 16 15
17 18 19 19 20 21 22 23 23 23 23 24 25 26 26 26 25 23 23 23 24 24 23 22 21 22 24 23 24 25 28 30 31 30 30 30 31 32 33 32 32 33 34 35 33 30 29 28 27 26 27 28 28 27 25 24 23 23 24 26 26 24 21 21 23 26 27 27 28 28 29 29 29 28 27 26 24 23 22 21 20 18 17 16 15 15
18 18 19 19 20 21 21 22 22 22 23 23 24 25 26 26 25 23 23 23 23 24 23 22 21 21 22 21 21 22 24 28 30 31 31 30 30 31 32 32 31 32 32 33 33 32 30 27 26 26 26 27 26 26 25 24 23 22 21 22 23 23 24 25 27 27 28 28 28 28 28 28 28 28 27 25 23 21 20 19 18 17 16 15 14 14
19 19 20 20 20 20 21 21 21 22 22 23 24 25 25 26 25 24 23 23 23 23 23 23 22 21 20 20 20 20 21 24 27 29 31 31 31 31 31 31 31 31 31 31 31 31 31 29 27 27 27 25 24 23 24 24 23 22 22 23 24 25 26 26 25 26 26 27 28 27 27 26 26 26 26 24 22 20 18 17 16 15 14 13 12 11
20 20 20 20 20 20 20 21 21 21 22 22 23 24 25 25 25 24 24 23 22 22 22 23 23 22 21 20 19 19 19 20 23 25 27 29 30 31 32 32 33 33 34 33 32 31 29 27 27 27 26 24 22 21 21 22 23 23 23 24 25 25 24 23 23 24 26 27 27 26 25 24 25 25 25 24 22 20 18 17 16 14 13 12 11 11
20 20 20 20 20 20 20 20 21 21 21 21 22 23 24 24 24 23 23 23 22 22 22 23 23 22 22 21 20 19 19 19 21 23 24 25 27 29 32 33 34 35 36 36 35 33 31 29 26 25 24 23 22 21 20 21 22 23 23 25 25 25 24 23 23 24 25 25 24 24 23 23 24 25 25 24 22 20 18 16 15 14 12 11 11 10
21 21 20 20 20 20 20 20 20 20 21 21 21 22 24 24 23 23 22 22 22 22 22 22 22 21 21 21 20 20 20 20 21 22 22 22 23 24 27 31 33 35 35 36 36 35 34 31 29 26 23 22 22 21 21 22 23 23 24 25 25 25 24 24 23 23 23 23 22 21 20 20 21 23 24 24 23 20 18 16 14 13 12 11 10 10
21 21 21 20 20 20 19 19 19 19 20 20 20 21 22 23 24 23 22 22 22 22 22 21 21 21 20 20 20 20 20 20 21 21 21 20 20 20 21 24 27 30 30 31 31 31 31 30 29 28 25 23 21 21 22 22 23 24 24 24 24 24 24 24 23 23 22 21 20 19 19 19 19 19 21 22 22 21 18 16 14 13 11 11 10 10
22 22 22 21 20 20 20 19 19 19 19 19 20 20 21 22 23 23 23 22 22 22 21 21 21 21 20 20 20 20 20 20 21 21 21 20 19 17 17 18 20 22 23 23 23 22 22 21 21 22 24 22 19 19 20 22 23 24 22 22 23 23 24 24 23 22 21 20 19 19 19 19 18 18 19 21 22 21 19 16 15 13 11 10 10 9
Wind_Direction
271 276 280 282 284 286 288 292 298 302 306 308 311 314 316 316 314 311 309 310 311 310 305 295 282 269 260 254 251 248 246 245 246 248 249 251 251 251 250 247 243 238 233 229 226 223 219 217 216 218 220 223 225 226 223 218 214 212 209 207 205 203 200 200 201 202 202 203 203 203 202 201 200 199 197 195 192 189 188 187 186 186 185 186 187 187
266 272 275 278 282 286 289 293 297 302 305 308 310 312 314 314 312 310 308 308 308 307 304 299 289 278 268 260 256 253 250 248 246 247 248 250 251 251 251 249 245 241 236 231 228 225 221 218 216 217 218 220 223 225 226 223 218 214 210 207 205 203 200 199 199 199 200 200 201 201 201 199 198 197 195 193 191 189 188 188 187 186 186 186 186 186
263 268 273 278 284 290 293 295 297 299 302 304 306 308 310 311 309 307 306 305 304 302 301 298 293 285 275 267 262 258 255 251 248 247 247 248 250 250 250 249 247 243 238 233 229 226 222 219 217 217 218 219 221 223 225 225 222 217 213 209 206 203 202 199 198 197 196 196 198 198 198 196 195 194 193 191 190 189 189 188 187 186 186 186 185 185
264 271 278 286 291 293 294 296 298 301 301 302 302 303 305 306 305 304 303 302 298 296 296 296 294 287 279 272 267 263 259 255 251 248 247 247 248 248 248 247 246 243 239 234 230 227 223 220 217 217 218 220 221 222 224 225 223 219 214 210 207 205 204 202 199 197 195 194 194 195 194 193 192 191 190 188 187 187 187 186 184 183 184 184 183 183
281 282 288 295 298 297 297 300 302 303 302 301 299 299 300 302 303 303 302 297 292 289 291 293 292 287 279 273 268 264 261 258 254 251 248 246 246 246 246 245 244 242 238 234 231 227 223 220 218 217 218 220 221 223 225 226 223 218 214 210 208 207 208 206 204 201 197 194 194 194 194 192 191 189 188 186 185 186 186 184 182 181 180 181 182 182
290 288 291 296 297 298 302 303 304 305 305 303 301 299 299 300 301 301 298 292 286 284 287 291 291 287 280 273 267 262 259 256 254 251 248 246 244 244 243 242 241 239 237 234 231 227 224 220 218 217 218 220 222 224 225 225 222 218 215 212 210 209 210 210 209 206 202 199 198 199 200 199 197 194 191 191 191 192 192 188 183 180 179 180 180 180
285 285 287 288 290 293 297 299 302 305 308 308 306 304 302 300 299 297 294 288 283 282 286 292 293 290 284 276 269 262 256 253 251 249 247 245 243 241 240 239 238 236 234 232 230 228 225 221 218 217 217 219 222 224 225 223 220 217 215 213 211 211 212 213 212 209 206 203 204 206 209 208 206 202 201 203 206 205 198 187 180 177 177 178 178 176
284 284 284 284 286 288 289 291 294 299 304 307 308 306 304 300 296 294 292 289 284 283 288 296 299 297 291 283 272 262 254 249 247 246 244 242 241 240 238 237 235 233 232 231 230 228 225 222 220 218 217 219 221 223 224 222 219 216 213 212 211 211 212 213 213 211 208 207 209 211 212 212 211 209 209 212 213 207 192 179 172 170 172 174 174 171
283 285 286 284 283 283 284 285 286 289 294 300 302 302 300 297 294 291 289 286 284 287 293 301 306 304 297 284 269 257 250 245 243 242 241 240 238 237 236 234 232 231 230 230 229 228 226 224 221 219 218 219 221 223 223 222 219 216 213 211 210 210 211 212 213 212 210 210 212 213 213 213 213 213 213 214 209 196 180 169 163 162 164 165 164 161
302 299 296 290 283 277 275 277 280 285 290 296 298 297 294 291 289 288 286 284 285 291 299 307 310 307 298 280 259 245 242 241 241 241 239 238 236 234 232 230 229 228 228 228 228 228 227 224 222 220 219 220 221 222 223 222 220 217 215 213 211 210 210 211 212 211 211 212 214 216 216 215 214 214 214 209 197 182 171 163 159 157 156 155 153 151
334 328 320 311 301 288 275 272 278 286 293 295 296 294 291 285 282 283 283 284 288 293 301 308 311 306 291 274 248 229 228 233 237 239 238 236 234 231 229 228 227 226 226 227 228 227 226 224 222 221 220 220 220 221 222 221 219 218 216 215 213 212 211 211 211 210 210 212 216 218 218 216 215 214 209 196 183 173 166 161 158 156 152 149 146 145
347 343 337 331 327 323 318 312 307 304 302 296 290 286 282 279 277 275 275 279 285 291 299 308 309 300 281 268 244 213 211 218 225 229 232 232 230 228 227 226 226 226 227 227 228 227 226 224 222 220 219 219 219 220 220 219 218 217 216 216 215 213 212 211 211 211 212 215 218 219 216 213 212 208 197 182 174 168 161 159 158 155 151 147 144 143
356 351 345 342 344 348 352 352 350 347 339 328 317 308 300 293 282 271 266 268 273 282 292 304 304 292 277 265 246 204 190 195 203 209 213 216 218 219 219 220 221 224 225 227 227 226 225 223 221 220 219 218 218 218 218 218 217 215 215 214 213 212 211 211 211 213 216 217 217 214 209 206 204 197 183 173 166 160 155 156 157 154 149 146 144 142
3 359 356 355 356 359 0 360 358 356 353 351 347 341 332 324 311 288 265 256 259 267 279 292 293 284 275 265 248 203 171 169 173 177 179 185 193 200 204 206 210 213 215 216 218 219 218 217 217 217 217 216 215 215 216 215 214 213 213 211 209 208 207 207 208 209 210 208 205 201 196 194 189 182 173 167 160 155 152 152 150 147 146 144 143 141
9 6 4 3 2 0 359 356 353 347 343 343 342 339 335 333 329 315 284 256 245 248 261 276 281 278 271 264 248 198 160 152 149 145 142 146 159 173 183 187 191 195 197 197 198 202 205 206 206 208 210 211 211 211 211 210 210 209 208 205 202 200 199 199 199 198 195 188 182 179 179 176 172 167 163 158 153 150 148 146 143 141 141 141 141 139
13 11 7 3 358 355 353 350 345 340 338 338 338 338 335 333 330 323 309 277 244 229 234 248 266 271 267 260 243 195 154 143 137 130 123 121 130 146 160 163 165 168 173 174 175 180 187 191 195 198 201 203 205 205 204 203 203 202 201 198 194 191 189 188 186 181 175 172 169 168 166 161 157 154 152 149 146 144 142 140 139 139 139 139 139 138
14 12 7 0 354 350 348 347 345 342 338 337 337 336 333 328 323 320 315 300 265 225 212 210 224 266 263 254 237 198 152 139 132 126 119 113 114 126 141 144 142 141 146 150 154 161 168 175 181 187 191 195 197 198 197 196 195 194 192 189 185 181 177 173 169 165 163 163 160 156 152 148 147 146 144 143 141 139 138 138 138 138 138 137 136 135
12 10 4 358 352 347 345 346 345 342 339 337 335 333 330 325 320 315 311 304 284 241 203 196 204 232 261 258 238 204 150 136 129 122 116 111 109 115 124 128 129 128 129 136 140 144 151 159 167 174 179 183 186 186 185 184 184 183 181 178 174 171 170 165 158 154 154 154 151 147 144 142 141 140 139 138 137 137 136 136 136 135 135 134 133 133
10 8 3 355 347 344 343 345 344 342 339 336 333 329 326 322 319 313 306 302 293 265 209 190 201 223 241 256 237 205 153 137 128 121 115 111 109 110 112 115 115 115 116 118 122 127 135 143 151 158 165 171 173 172 170 168 167 166 165 163 161 159 158 153 149 147 146 145 144 142 140 139 139 138 137 136 135 134 134 134 134 133 133 133 133 134
10 7 2 353 345 341 341 342 342 339 336 333 329 325 320 318 316 310 302 298 299 292 236 195 195 212 229 244 237 210 164 136 124 119 116 112 110 108 108 109 108 107 106 105 109 115 121 126 132 140 150 158 162 162 159 155 153 152 152 151 151 150 148 146 143 142 141 140 139 139 139 138 138 137 136 135 134 134 133 133 133 133 134 135 135 136
10 5 0 356 349 343 341 339 339 338 336 333 328 322 316 314 312 307 303 301 306 308 290 219 202 209 221 231 231 215 177 142 125 120 118 114 110 108 109 109 108 105 103 103 106 109 112 115 120 127 135 143 148 150 149 146 145 144 142 143 143 143 142 141 140 139 139 138 138 138 138 137 137 136 136 135 134 134 134 133 133 134 135 136 137 138
9 3 1 360 356 349 343 340 340 341 340 337 330 320 315 310 305 299 298 299 303 308 309 287 235 217 219 226 228 217 190 159 136 124 119 113 106 107 110 110 109 107 105 105 105 106 106 108 111 116 123 129 136 140 141 140 139 137 136 137 137 137 138 138 138 137 137 137 138 138 138 137 137 136 135 135 134 134 134 133 133 133 133 134 135 136
10 5 3 2 360 355 350 346 346 347 346 342 335 324 314 303 293 286 283 282 282 285 292 294 275 233 216 223 226 219 201 176 149 133 123 116 111 112 112 111 110 109 109 109 108 106 104 103 104 107 112 118 124 129 133 135 135 134 133 132 133 133 134 134 134 134 135 135 136 137 137 137 137 137 136 136 135 135 135 134 134 133 133 133 132 133
12 9 6 4 2 360 356 352 351 351 351 349 344 336 325 308 290 279 274 271 269 270 273 282 276 240 206 210 219 221 210 188 163 145 131 122 118 118 115 112 110 109 112 114 114 111 107 105 104 104 106 109 113 118 124 127 129 130 129 129 130 130 131 131 131 132 133 133 134 134 135 136 136 137 137 136 136 135 135 134 134 133 133 133 132 131
13 11 8 6 5 2 0 358 356 356 356 355 352 347 340 326 299 279 274 272 270 269 270 277 268 233 191 188 201 215 216 199 178 159 140 130 125 122 117 114 111 110 113 116 118 117 114 112 111 109 107 107 108 111 115 120 123 126 127 128 129 129 130 130 131 131 132 132 133 133 133 134 135 135 136 136 136 135 135 134 134 133 133 133 132 131
16 14 11 10 8 7 5 4 3 1 1 2 360 357 354 350 335 283 267 270 269 266 263 259 247 219 182 172 181 202 216 208 189 166 147 138 133 129 123 118 114 111 111 113 115 116 116 116 118 118 116 114 112 111 113 115 119 122 124 126 127 128 129 130 131 131 132 132 133 134 134 135 135 136 136 137 137 136 136 135 134 133 132 131 129 127
17 16 14 13 12 11 10 8 7 6 6 7 7 7 8 12 15 15 2 330 302 275 262 250 235 200 173 164 171 189 207 211 194 170 154 143 137 132 129 123 117 113 109 109 111 113 113 115 117 120 123 124 124 122 119 119 119 121 122 124 126 127 128 129 130 131 132 133 134 135 136 137 137 137 138 138 137 137 136 135 134 132 130 127 124 122
19 18 17 16 15 14 13 12 10 9 10 12 13 15 18 20 20 15 1 349 336 306 273 248 226 193 170 159 164 177 198 210 196 174 159 147 140 136 134 126 120 116 112 111 110 111 111 112 115 118 122 125 128 130 131 130 129 128 127 128 129 130 131 132 133 133 134 135 136 137 138 139 139 139 139 139 139 138 137 136 134 132 130 127 124 123
21 21 20 19 17 16 16 15 13 12 12 15 17 19 22 22 20 11 357 354 347 324 286 257 229 198 164 149 154 169 192 214 201 176 163 149 141 138 136 129 124 121 119 117 113 110 109 112 115 118 121 123 125 127 130 132 133 134 134 134 135 136 137 137 138 138 138 138 139 140 141 141 142 142 141 141 140 139 139 138 136 134 132 131 131 131
17 18 20 19 18 17 17 17 15 14 14 17 19 20 21 22 19 14 8 7 2 343 306 281 238 194 161 148 146 161 188 213 207 180 166 156 146 139 138 134 132 130 128 125 119 109 106 111 117 122 123 124 124 124 126 128 129 130 131 132 134 135 137 138 138 139 139 140 140 141 141 142 142 142 142 141 141 140 139 139 138 137 136 137 139 142
11 13 15 15 15 15 16 16 16 16 17 19 20 20 19 19 18 17 17 16 12 2 339 321 282 191 166 159 150 151 182 204 206 191 166 162 151 143 141 140 139 138 136 134 133 108 104 108 118 125 129 128 127 127 128 128 128 128 129 129 130 132 134 135 136 136 137 138 139 140 140 141 141 141 141 140 140 141 141 141 141 142 142 144 147 149
10 11 11 12 12 13 14 15 16 17 18 20 20 19 19 19 18 18 19 19 19 14 5 355 354 26 152 152 146 140 158 187 196 192 163 160 151 145 144 144 144 143 142 139 137 134 126 115 119 124 128 128 128 129 130 130 130 130 129 129 129 130 131 133 133 133 134 136 138 139 141 142 142 143 143 143 144 145 146 147 147 148 150 151 152 152
11 12 12 12 12 12 13 13 14 16 18 19 18 18 18 19 19 20 20 22 23 22 18 15 14 24 61 97 108 122 148 173 186 188 165 156 151 148 145 145 144 144 142 139 136 133 131 130 124 121 120 121 121 123 125 127 127 128 127 126 126 126 128 130 131 131 132 133 135 138 141 144 146 147 148 149 150 152 153 154 155 156 157 156 155 155
11 12 12 12 12 12 12 12 14 15 16 16 16 15 15 16 17 18 20 23 26 28 27 26 25 26 37 58 80 106 137 168 184 193 176 160 154 150 146 145 144 142 138 135 131 129 129 129 127 123 118 115 115 117 119 120 122 124 125 125 124 125 127 128 129 129 130 131 132 134 138 142 145 149 151 153 155 157 158 159 160 161 161 160 158 156
11 13 13 12 11 10 10 10 12 13 14 13 13 12 12 13 14 16 18 22 26 30 33 35 37 39 43 48 55 72 116 166 182 193 187 171 157 151 146 145 144 141 138 135 132 130 129 129 129 128 124 117 114 115 117 118 121 123 125 126 126 127 128 129 130 130 130 131 131 133 135 139 142 145 148 152 154 156 157 158 159 160 160 160 159 158
12 12 12 11 10 8 8 8 9 10 10 11 11 10 10 11 13 15 18 21 25 30 35 41 46 50 53 54 49 50 92 165 182 192 192 178 161 152 147 145 143 141 138 136 135 134 132 130 129 128 127 123 117 115 117 121 123 125 125 126 128 129 131 132 133 133 132 132 132 132 134 136 138 139 142 146 149 151 152 153 154 155 155 156 157 157
13 12 11 10 9 7 6 6 7 7 6 7 7 8 9 10 11 14 18 21 25 30 36 44 51 56 58 59 57 59 87 153 178 189 189 175 162 153 144 141 140 140 138 138 137 136 133 130 128 127 125 125 124 121 120 121 122 123 123 125 128 129 131 134 136 137 135 134 133 133 134 134 134 134 136 140 143 144 146 147 148 149 150 150 151 152
14 12 11 9 8 6 5 5 5 4 4 3 4 5 8 10 12 15 18 21 25 29 35 43 51 58 62 63 63 67 82 116 151 167 166 158 151 144 137 134 136 138 138 138 138 137 135 133 131 128 126 124 124 125 125 123 121 121 121 125 128 130 131 134 136 138 137 136 135 135 136 136 136 136 137 139 141 141 141 142 143 145 145 145 144 143
13 11 9 8 6 5 4 3 2 2 3 3 4 6 10 14 16 18 20 22 25 30 35 42 50 57 63 66 68 71 80 96 116 131 139 140 139 136 133 131 131 132 134 135 137 137 138 137 137 135 132 128 125 124 125 125 124 122 123 124 125 127 130 133 135 136 137 137 137 137 137 138 139 140 140 142 144 143 142 141 143 145 145 143 141 138
12 10 8 6 4 3 2 1 1 1 3 5 8 12 15 17 19 20 22 24 26 30 37 44 52 59 64 66 67 70 77 90 106 119 127 130 131 131 131 129 129 129 129 130 132 134 135 135 135 135 135 134 132 129 127 126 126 127 126 122 119 120 127 131 134 135 137 138 138 137 138 139 140 140 141 143 144 145 144 144 145 147 149 148 145 142
10 8 5 3 2 3 3 2 3 5 7 10 13 15 17 18 18 18 20 22 24 27 34 42 51 58 64 66 66 67 73 84 97 110 119 123 125 127 128 127 127 127 126 125 125 126 126 126 127 129 131 132 131 129 128 128 130 130 128 125 121 122 126 130 133 134 136 136 137 137 138 138 138 139 139 140 141 143 145 145 146 147 150 152 152 150
9 7 3 1 1 1 2 4 6 9 13 16 17 18 17 18 17 17 17 18 19 21 26 34 43 50 55 57 59 61 66 75 88 101 111 117 121 122 123 123 124 124 123 119 116 116 119 121 123 125 127 128 127 125 124 125 128 129 129 127 125 123 121 124 129 132 132 132 133 135 135 136 135 136 136 137 138 140 143 144 146 148 151 153 156 157
8 5 3 2 2 3 5 8 10 12 15 18 19 19 18 18 19 19 20 19 18 18 21 28 37 45 49 49 50 52 58 67 79 92 103 111 116 119 119 120 121 122 121 116 112 110 113 116 118 122 126 127 126 124 123 121 122 124 126 129 128 124 117 117 124 129 129 130 131 132 133 134 134 135 136 136 138 140 142 144 146 149 151 153 155 156
7 6 6 6 7 8 10 11 11 13 15 17 18 19 19 19 21 22 24 23 22 21 22 27 36 45 48 46 44 45 51 61 72 83 93 103 111 117 119 121 122 123 123 119 115 112 112 111 113 118 123 124 124 122 121 121 121 122 125 129 130 129 127 127 128 128 128 129 131 132 133 134 134 134 134 134 135 137 140 143 144 146 147 149 151 152
10 10 10 10 11 11 11 10 11 13 15 18 19 19 19 20 22 25 26 26 26 25 24 29 37 44 44 42 42 43 47 55 64 73 83 93 104 113 118 120 121 121 121 120 120 120 118 114 113 115 118 119 120 120 120 121 121 121 123 125 124 124 125 129 131 131 130 130 130 131 133 135 135 133 130 129 129 131 134 137 138 140 142 145 147 149
13 13 12 12 13 13 12 11 12 14 16 19 20 20 21 22 23 26 28 29 29 28 28 33 39 43 42 39 39 42 46 50 56 63 71 81 92 103 110 115 117 118 116 115 117 119 119 119 119 118 116 114 112 114 120 122 122 121 121 122 121 121 122 125 128 130 131 132 132 133 136 138 136 132 128 127 127 127 129 131 132 133 136 139 142 144
14 14 14 14 14 14 14 14 15 16 18 19 20 21 22 23 24 26 28 30 31 32 32 36 40 42 41 38 38 40 44 49 53 58 63 71 80 89 98 104 110 113 112 111 110 109 110 113 118 120 119 115 111 110 114 119 121 122 123 124 124 123 122 123 127 131 133 134 135 137 139 140 137 132 129 128 126 125 125 125 127 128 131 135 138 141
16 16 15 16 16 17 17 17 18 18 19 19 20 22 23 25 25 26 27 29 32 34 36 37 39 40 39 38 37 38 44 49 55 59 63 66 74 82 90 96 101 105 107 108 106 105 103 104 107 111 116 118 116 114 113 116 118 121 124 126 126 124 123 125 129 132 135 136 138 140 143 142 138 133 131 128 124 122 121 121 122 124 127 131 135 138
18 18 18 18 18 18 18 19 20 20 20 20 20 22 24 27 28 28 29 30 33 35 37 38 39 39 38 36 35 37 42 48 53 56 59 64 71 80 88 94 98 100 102 102 102 101 99 96 94 96 102 109 113 115 115 116 118 120 122 124 124 123 123 125 129 133 135 137 139 141 144 144 142 140 137 129 124 121 121 120 121 123 125 129 132 135
20 20 21 21 20 20 20 21 22 22 22 22 21 22 24 27 30 31 32 33 35 37 38 38 40 40 38 35 33 34 38 43 47 49 51 57 66 76 85 93 99 101 100 99 97 95 92 86 82 82 86 94 103 110 113 115 117 118 118 119 120 122 122 124 128 132 134 135 137 139 140 140 142 143 140 132 127 125 126 125 125 125 127 130 133 135
21 21 22 23 23 22 22 23 24 25 25 25 25 26 27 28 29 30 32 34 36 37 38 39 40 41 40 37 34 34 36 40 42 43 43 48 57 67 79 92 100 103 104 103 101 98 92 84 76 71 69 74 87 101 112 115 116 116 113 114 118 120 122 124 127 131 133 134 135 136 136 136 138 140 140 135 131 130 131 131 130 129 130 132 134 135